When you browse on this site, cookies collect data to enhance your experience and personalize the content and advertising you see.
Visit our Privacy Policy to learn more. By continuing to use the site, you agree to this use of cookies and data.
  • In France
  • List of Countries
  • For 7 days
  • Water Temperature
  • Weather Map
  • Weather Widgets
  • user-avatar
    Login

    Hourly Weather Soma Bey

    Today, 21 August, Wednesday

    Time Temperature Precipitation Wind Pressure Humidity
    00:00 +30°C° 0 mm 3 mps 746 mmHg 23%
    01:00 +29°C° 0 mm 3 mps 746 mmHg 24%
    02:00 +28°C° 0 mm 2 mps 745 mmHg 24%
    03:00 +28°C° 0 mm 3 mps 745 mmHg 26%
    04:00 +27°C° 0 mm 3 mps 745 mmHg 28%
    05:00 +26°C° 0 mm 3 mps 745 mmHg 30%
    06:00 +29°C° 0 mm 4 mps 746 mmHg 27%
    07:00 +33°C° 0 mm 4 mps 746 mmHg 24%
    08:00 +36°C° 0 mm 5 mps 746 mmHg 21%
    09:00 +37°C° 0 mm 5 mps 746 mmHg 21%
    10:00 +39°C° 0 mm 5 mps 746 mmHg 21%
    11:00 +41°C° 0 mm 5 mps 746 mmHg 21%
    12:00 +41°C° 0 mm 6 mps 745 mmHg 22%
    13:00 +41°C° 0 mm 6 mps 745 mmHg 23%
    14:00 +41°C° 0 mm 6 mps 744 mmHg 24%
    15:00 +41°C° 0 mm 6 mps 744 mmHg 25%
    16:00 +40°C° 0 mm 6 mps 744 mmHg 26%
    17:00 +39°C° 0 mm 5 mps 743 mmHg 27%
    18:00 +36°C° 0 mm 4 mps 743 mmHg 31%
    19:00 +34°C° 0 mm 3 mps 744 mmHg 35%
    20:00 +31°C° 0 mm 2 mps 744 mmHg 39%
    21:00 +30°C° 0 mm 2 mps 744 mmHg 39%
    22:00 +30°C° 0 mm 2 mps 744 mmHg 38%
    23:00 +30°C° 0 mm 2 mps 744 mmHg 37%

    Tomorrow, 22 August, Thursday

    Time Temperature Precipitation Wind Pressure Humidity
    00:00 +30°C° 0 mm 2 mps 744 mmHg 36%
    01:00 +30°C° 0 mm 2 mps 743 mmHg 36%
    02:00 +29°C° 0 mm 2 mps 743 mmHg 35%
    03:00 +29°C° 0 mm 3 mps 743 mmHg 38%
    04:00 +28°C° 0 mm 3 mps 743 mmHg 41%
    05:00 +27°C° 0 mm 4 mps 743 mmHg 44%
    06:00 +30°C° 0 mm 4 mps 744 mmHg 37%
    07:00 +34°C° 0 mm 5 mps 744 mmHg 30%
    08:00 +36°C° 0 mm 5 mps 744 mmHg 23%
    09:00 +39°C° 0 mm 6 mps 744 mmHg 21%
    10:00 +41°C° 0 mm 6 mps 744 mmHg 19%
    11:00 +42°C° 0 mm 6 mps 744 mmHg 17%
    12:00 +42°C° 0 mm 6 mps 743 mmHg 19%
    13:00 +42°C° 0 mm 6 mps 743 mmHg 22%
    14:00 +42°C° 0 mm 6 mps 742 mmHg 24%
    15:00 +41°C° 0 mm 6 mps 742 mmHg 25%
    16:00 +41°C° 0 mm 5 mps 742 mmHg 26%
    17:00 +40°C° 0 mm 4 mps 741 mmHg 27%
    18:00 +37°C° 0 mm 4 mps 742 mmHg 32%
    19:00 +34°C° 0 mm 3 mps 742 mmHg 36%
    20:00 +31°C° 0 mm 2 mps 743 mmHg 41%
    21:00 +31°C° 0 mm 2 mps 743 mmHg 40%
    22:00 +31°C° 0 mm 2 mps 743 mmHg 38%
    23:00 +31°C° 0 mm 2 mps 743 mmHg 37%

    Day after tomorrow, 23 August, Friday

    Time Temperature Precipitation Wind Pressure Humidity
    00:00 +30°C° 0 mm 3 mps 743 mmHg 38%
    01:00 +30°C° 0 mm 3 mps 742 mmHg 39%
    02:00 +29°C° 0 mm 4 mps 742 mmHg 39%
    03:00 +28°C° 0 mm 4 mps 742 mmHg 41%
    04:00 +28°C° 0 mm 4 mps 742 mmHg 43%
    05:00 +27°C° 0 mm 4 mps 742 mmHg 45%
    06:00 +30°C° 0 mm 4 mps 743 mmHg 40%
    07:00 +33°C° 0 mm 4 mps 743 mmHg 35%
    08:00 +35°C° 0 mm 4 mps 743 mmHg 30%
    09:00 +37°C° 0 mm 5 mps 743 mmHg 28%
    10:00 +40°C° 0 mm 5 mps 743 mmHg 26%
    11:00 +42°C° 0 mm 6 mps 743 mmHg 24%
    12:00 +41°C° 0 mm 5 mps 743 mmHg 26%
    13:00 +41°C° 0 mm 5 mps 742 mmHg 27%
    14:00 +41°C° 0 mm 4 mps 742 mmHg 29%
    15:00 +40°C° 0 mm 3 mps 742 mmHg 31%
    16:00 +39°C° 0 mm 2 mps 742 mmHg 32%
    17:00 +38°C° 0 mm 2 mps 741 mmHg 34%
    18:00 +35°C° 0 mm 1 mps 742 mmHg 40%
    19:00 +33°C° 0 mm 1 mps 742 mmHg 45%
    20:00 +31°C° 0 mm 1 mps 742 mmHg 51%
    21:00 +30°C° 0 mm 1 mps 743 mmHg 51%
    22:00 +30°C° 0 mm 1 mps 743 mmHg 52%
    23:00 +30°C° 0 mm 1 mps 743 mmHg 52%

    24 August, Saturday

    Time Temperature Precipitation Wind Pressure Humidity
    00:00 +30°C° 0 mm 1 mps 742 mmHg 52%
    01:00 +29°C° 0 mm 1 mps 742 mmHg 52%
    02:00 +29°C° 0 mm 1 mps 742 mmHg 52%
    03:00 +28°C° 0 mm 2 mps 742 mmHg 54%
    04:00 +28°C° 0 mm 3 mps 743 mmHg 57%
    05:00 +27°C° 0 mm 4 mps 743 mmHg 60%
    06:00 +30°C° 0 mm 4 mps 743 mmHg 52%
    07:00 +33°C° 0 mm 3 mps 744 mmHg 44%
    08:00 +36°C° 0 mm 3 mps 744 mmHg 36%
    09:00 +37°C° 0 mm 4 mps 744 mmHg 33%
    10:00 +40°C° 0 mm 5 mps 744 mmHg 30%
    11:00 +41°C° 0 mm 5 mps 744 mmHg 28%
    12:00 +41°C° 0 mm 5 mps 744 mmHg 30%
    13:00 +40°C° 0 mm 4 mps 744 mmHg 33%
    14:00 +40°C° 0 mm 4 mps 743 mmHg 36%
    15:00 +39°C° 0 mm 3 mps 743 mmHg 35%
    16:00 +39°C° 0 mm 2 mps 743 mmHg 34%
    17:00 +39°C° 0 mm 2 mps 743 mmHg 33%
    18:00 +36°C° 0 mm 1 mps 743 mmHg 37%
    19:00 +34°C° 0 mm 1 mps 743 mmHg 41%
    20:00 +32°C° 0 mm 1 mps 744 mmHg 44%
    21:00 +32°C° 0 mm 1 mps 744 mmHg 43%
    22:00 +32°C° 0 mm 1 mps 744 mmHg 42%
    23:00 +32°C° 0 mm 1 mps 744 mmHg 41%

    25 August, Sunday

    Time Temperature Precipitation Wind Pressure Humidity
    00:00 +31°C° 0 mm 2 mps 743 mmHg 45%
    01:00 +30°C° 0 mm 2 mps 743 mmHg 48%
    02:00 +29°C° 0 mm 2 mps 743 mmHg 52%
    03:00 +29°C° 0 mm 2 mps 743 mmHg 54%
    04:00 +29°C° 0 mm 3 mps 744 mmHg 57%
    05:00 +28°C° 0 mm 4 mps 744 mmHg 59%
    06:00 +32°C° 0 mm 4 mps 744 mmHg 51%
    07:00 +34°C° 0 mm 4 mps 745 mmHg 42%
    08:00 +36°C° 0 mm 4 mps 745 mmHg 33%
    09:00 +38°C° 0 mm 4 mps 745 mmHg 31%
    10:00 +41°C° 0 mm 5 mps 745 mmHg 28%
    11:00 +42°C° 0 mm 6 mps 745 mmHg 25%
    12:00 +42°C° 0 mm 5 mps 744 mmHg 26%
    13:00 +42°C° 0 mm 5 mps 744 mmHg 27%
    14:00 +43°C° 0 mm 5 mps 743 mmHg 27%
    15:00 +42°C° 0 mm 4 mps 743 mmHg 27%
    16:00 +40°C° 0 mm 3 mps 743 mmHg 27%
    17:00 +40°C° 0 mm 2 mps 742 mmHg 27%
    18:00 +37°C° 0 mm 1 mps 743 mmHg 30%
    19:00 +35°C° 0 mm 1 mps 743 mmHg 33%
    20:00 +33°C° 0 mm 1 mps 743 mmHg 35%
    21:00 +33°C° 0 mm 1 mps 744 mmHg 35%
    22:00 +32°C° 0 mm 1 mps 744 mmHg 34%
    23:00 +32°C° 0 mm 1 mps 744 mmHg 33%

    26 August, Monday

    Time Temperature Precipitation Wind Pressure Humidity
    00:00 +32°C° 0 mm 2 mps 744 mmHg 35%
    01:00 +31°C° 0 mm 2 mps 743 mmHg 37%
    02:00 +30°C° 0 mm 2 mps 743 mmHg 39%
    03:00 +30°C° 0 mm 3 mps 743 mmHg 41%
    04:00 +29°C° 0 mm 3 mps 744 mmHg 43%
    05:00 +29°C° 0 mm 4 mps 744 mmHg 44%
    06:00 +33°C° 0 mm 4 mps 744 mmHg 38%
    07:00 +36°C° 0 mm 4 mps 744 mmHg 31%
    08:00 +40°C° 0 mm 5 mps 745 mmHg 24%
    09:00 +41°C° 0 mm 5 mps 745 mmHg 22%
    10:00 +44°C° 0 mm 6 mps 745 mmHg 21%
    11:00 +45°C° 0 mm 6 mps 745 mmHg 19%
    12:00 +45°C° 0 mm 6 mps 744 mmHg 20%
    13:00 +45°C° 0 mm 5 mps 744 mmHg 21%
    14:00 +45°C° 0 mm 5 mps 743 mmHg 22%
    15:00 +44°C° 0 mm 4 mps 743 mmHg 22%
    16:00 +43°C° 0 mm 4 mps 743 mmHg 23%
    17:00 +42°C° 0 mm 3 mps 743 mmHg 24%
    18:00 +39°C° 0 mm 3 mps 743 mmHg 27%
    19:00 +37°C° 0 mm 2 mps 743 mmHg 31%
    20:00 +34°C° 0 mm 2 mps 744 mmHg 34%
    21:00 +35°C° 0 mm 3 mps 744 mmHg 32%
    22:00 +35°C° 0 mm 3 mps 744 mmHg 30%
    23:00 +35°C° 0 mm 4 mps 744 mmHg 27%
    Show more